User: anonymous   Login
Location: Camps Bay
(33.9517°S, 18.3844°E)
Time: 19:45:39
(UTC+00:00)
Language:

MOZ.5/SAFIR/RUBIN 5/SL-8 - Orbit

View from above orbital plane
View from above orbital plane
View from above satellite
View from above satellite

Ground track
Ground track

The orbit data is extracted from the following two-line orbital elements,

1 28898U 05043G   20090.77302743 +.00000076 +00000-0 +25163-4 0  9995
2 28898 098.0642 220.1324 0018745 233.6352 126.3119 14.60415479391714
Epoch (UTC): 30 March 2020 18:33:09
Eccentricity: 0.0018745
inclination: 98.0642°
perigee height: 678 km
apogee height: 705 km
right ascension of ascending node: 220.1324°
argument of perigee: 233.6352°
revolutions per day: 14.60415479
mean anomaly at epoch: 126.3119°
orbit number at epoch: 39171

The dashed part of the orbit path shows where the satellite is in the earth's shadow,  

DLR